TimeCST,TemperatureF,Dew PointF,Humidity,Sea Level PressureIn,VisibilityMPH,Wind Direction,Wind SpeedMPH,Gust SpeedMPH,PrecipitationIn,Events,Conditions,WindDirDegrees,DateUTC
12:53 AM,43.0,27.0,53,29.95,10.0,South,11.5,-,N/A,,Clear,180,2014-01-04 06:53:00
1:53 AM,39.0,26.1,60,29.94,10.0,SSE,8.1,-,N/A,,Clear,150,2014-01-04 07:53:00
2:53 AM,39.9,28.0,63,29.93,10.0,SSE,8.1,-,N/A,,Clear,160,2014-01-04 08:53:00
3:53 AM,39.0,30.9,73,29.91,10.0,SSE,8.1,-,N/A,,Clear,150,2014-01-04 09:53:00
4:53 AM,37.9,33.1,83,29.91,10.0,SE,9.2,-,N/A,,Clear,130,2014-01-04 10:53:00
5:53 AM,37.9,35.1,89,29.89,10.0,SSE,11.5,-,N/A,,Clear,150,2014-01-04 11:53:00
6:53 AM,39.0,37.0,93,29.88,10.0,SSE,9.2,-,N/A,,Clear,150,2014-01-04 12:53:00
7:53 AM,39.9,37.9,93,29.88,10.0,SSE,9.2,-,N/A,,Clear,160,2014-01-04 13:53:00
8:53 AM,44.1,39.0,82,29.88,10.0,SSE,8.1,-,N/A,,Clear,160,2014-01-04 14:53:00
9:53 AM,53.1,43.0,69,29.87,10.0,South,13.8,-,N/A,,Clear,190,2014-01-04 15:53:00
10:53 AM,57.9,42.1,56,29.85,10.0,SSW,13.8,20.7,N/A,,Clear,200,2014-01-04 16:53:00
11:53 AM,63.0,42.1,46,29.79,10.0,SSW,20.7,32.2,N/A,,Clear,200,2014-01-04 17:53:00
12:53 PM,66.0,41.0,40,29.73,10.0,SW,19.6,26.5,N/A,,Clear,220,2014-01-04 18:53:00
1:53 PM,69.1,41.0,36,29.71,10.0,SSW,20.7,25.3,N/A,,Clear,210,2014-01-04 19:53:00
2:53 PM,71.1,41.0,34,29.69,10.0,SSW,16.1,24.2,N/A,,Clear,210,2014-01-04 20:53:00
3:53 PM,69.1,41.0,36,29.70,10.0,SSW,13.8,-,N/A,,Clear,200,2014-01-04 21:53:00
4:53 PM,66.9,41.0,39,29.70,10.0,SSW,11.5,-,N/A,,Clear,200,2014-01-04 22:53:00
5:53 PM,63.0,43.0,48,29.70,10.0,SSE,6.9,-,N/A,,Clear,160,2014-01-04 23:53:00
6:53 PM,61.0,44.1,54,29.70,10.0,SSE,9.2,-,N/A,,Clear,160,2014-01-05 00:53:00
7:53 PM,62.1,43.0,50,29.73,10.0,Variable,3.5,-,N/A,,Clear,0,2014-01-05 01:53:00
8:53 PM,52.0,30.9,45,29.74,10.0,North,6.9,-,N/A,,Clear,10,2014-01-05 02:53:00
9:53 PM,48.9,32.0,52,29.76,10.0,NNW,10.4,-,N/A,,Clear,330,2014-01-05 03:53:00
10:53 PM,46.0,30.0,54,29.78,10.0,NNW,13.8,-,N/A,,Clear,340,2014-01-05 04:53:00
11:53 PM,39.0,28.9,67,29.82,10.0,NNW,16.1,-,N/A,,Clear,340,2014-01-05 05:53:00